| time (UTC) | temp C | wind direction | speed KPH | gust KPH | rain 1hr cm | rain 24hr cm | rain mn cm | humidity % | barometer mb |
| 20260509132037 | 10 | 198 | 1.6 | 4.8 | 0.00 | 0.03 | 0.00 | 85 | 1008.8 |
| 20260509131601 | 10 | 0 | 1.6 | 8.0 | 0.00 | 0.03 | 0.00 | 86 | 1008.9 |
| 20260509131035 | 10 | 0 | 1.6 | 8.0 | 0.00 | 0.03 | 0.00 | 86 | 1008.9 |
| 20260509130537 | 10 | 132 | 0.0 | 4.8 | 0.00 | 0.03 | 0.00 | 85 | 1009.0 |
| 20260509130053 | 10 | 170 | 0.0 | 4.8 | 0.00 | 0.03 | 0.00 | 86 | 1009.0 |
| 20260509125534 | 10 | 0 | 0.0 | 4.8 | 0.00 | 0.03 | 0.00 | 85 | 1008.9 |
| 20260509125034 | 9 | 104 | 1.6 | 4.8 | 0.00 | 0.03 | 0.00 | 86 | 1008.9 |
| 20260509124544 | 9 | 97 | 0.0 | 6.4 | 0.00 | 0.03 | 0.00 | 85 | 1008.9 |
| 20260509124034 | 9 | 100 | 1.6 | 6.4 | 0.00 | 0.03 | 0.00 | 85 | 1009.1 |
| 20260509123534 | 8 | 106 | 1.6 | 6.4 | 0.00 | 0.03 | 0.00 | 85 | 1009.0 |
| 20260509123048 | 8 | 108 | 1.6 | 6.4 | 0.00 | 0.03 | 0.00 | 85 | 1009.0 |
| 20260509122534 | 8 | 115 | 1.6 | 6.4 | 0.00 | 0.03 | 0.00 | 86 | 1009.0 |
| 20260509122034 | 8 | 103 | 1.6 | 4.8 | 0.00 | 0.03 | 0.00 | 86 | 1009.1 |
| 20260509121550 | 8 | 0 | 0.0 | 4.8 | 0.00 | 0.03 | 0.00 | 86 | 1009.1 |
| 20260509121036 | 7 | 0 | 0.0 | 4.8 | 0.00 | 0.03 | 0.00 | 86 | 1009.1 |
| 20260509120534 | 7 | 0 | 0.0 | 4.8 | 0.00 | 0.03 | 0.00 | 86 | 1009.1 |
| 20260509120041 | 7 | 0 | 0.0 | 4.8 | 0.00 | 0.03 | 0.00 | 86 | 1009.0 |
| 20260509115534 | 7 | 0 | 0.0 | 4.8 | 0.00 | 0.03 | 0.00 | 86 | 1009.2 |
| 20260509115034 | 7 | 0 | 0.0 | 0.0 | 0.00 | 0.03 | 0.00 | 87 | 1009.2 |
| 20260509114538 | 6 | 0 | 0.0 | 3.2 | 0.00 | 0.03 | 0.00 | 87 | 1009.2 |
| 20260509114034 | 6 | 0 | 0.0 | 3.2 | 0.00 | 0.03 | 0.00 | 87 | 1009.2 |
| 20260509113533 | 6 | 0 | 0.0 | 3.2 | 0.00 | 0.03 | 0.00 | 88 | 1009.1 |
| 20260509113037 | 6 | 0 | 0.0 | 3.2 | 0.00 | 0.03 | 0.00 | 88 | 1009.2 |
| 20260509112535 | 6 | 101 | 0.0 | 1.6 | 0.00 | 0.03 | 0.00 | 88 | 1009.2 |
| 20260509112034 | 6 | 0 | 0.0 | 3.2 | 0.00 | 0.03 | 0.00 | 89 | 1009.3 |
| 20260509111546 | 6 | 0 | 0.0 | 3.2 | 0.00 | 0.03 | 0.00 | 89 | 1009.2 |
| 20260509111034 | 6 | 0 | 1.6 | 3.2 | 0.00 | 0.03 | 0.00 | 90 | 1009.1 |
| 20260509110533 | 5 | 100 | 0.0 | 3.2 | 0.00 | 0.03 | 0.00 | 91 | 1009.0 |
| 20260509110048 | 5 | 100 | 0.0 | 4.8 | 0.00 | 0.03 | 0.00 | 92 | 1009.0 |
| 20260509105534 | 5 | 101 | 0.0 | 4.8 | 0.00 | 0.03 | 0.00 | 93 | 1009.1 |
| 20260509105034 | 5 | 100 | 0.0 | 4.8 | 0.00 | 0.03 | 0.00 | 93 | 1009.1 |
| 20260509104550 | 5 | 0 | 1.6 | 4.8 | 0.00 | 0.03 | 0.00 | 94 | 1009.1 |
| 20260509104035 | 4 | 98 | 1.6 | 4.8 | 0.00 | 0.03 | 0.00 | 95 | 1009.0 |
| 20260509103535 | 4 | 98 | 0.0 | 4.8 | 0.00 | 0.03 | 0.00 | 96 | 1008.9 |
| 20260509103038 | 3 | 98 | 1.6 | 4.8 | 0.00 | 0.03 | 0.00 | 96 | 1008.9 |
| 20260509102534 | 3 | 94 | 0.0 | 0.0 | 0.00 | 0.03 | 0.00 | 96 | 1009.1 |
| 20260509102034 | 3 | 0 | 0.0 | 0.0 | 0.00 | 0.03 | 0.00 | 95 | 1009.0 |
| 20260509101538 | 3 | 0 | 0.0 | 0.0 | 0.00 | 0.03 | 0.00 | 95 | 1009.1 |
| 20260509101034 | 3 | 0 | 0.0 | 0.0 | 0.00 | 0.03 | 0.00 | 95 | 1009.1 |
| 20260509100533 | 3 | 0 | 0.0 | 0.0 | 0.00 | 0.03 | 0.00 | 95 | 1009.0 |
| 20260509100044 | 3 | 0 | 0.0 | 0.0 | 0.00 | 0.03 | 0.00 | 95 | 1009.1 |
| 20260509095534 | 3 | 0 | 0.0 | 0.0 | 0.00 | 0.03 | 0.00 | 95 | 1009.2 |
| 20260509095034 | 3 | 0 | 0.0 | 0.0 | 0.00 | 0.03 | 0.00 | 95 | 1009.0 |
| 20260509094547 | 3 | 0 | 0.0 | 0.0 | 0.00 | 0.03 | 0.00 | 95 | 1009.0 |
| 20260509094034 | 3 | 0 | 0.0 | 0.0 | 0.00 | 0.03 | 0.00 | 95 | 1008.9 |
| 20260509093533 | 3 | 0 | 0.0 | 0.0 | 0.00 | 0.03 | 0.00 | 95 | 1009.1 |
| 20260509093044 | 2 | 0 | 0.0 | 0.0 | 0.00 | 0.03 | 0.00 | 95 | 1009.0 |
| 20260509092536 | 2 | 0 | 0.0 | 0.0 | 0.00 | 0.03 | 0.00 | 95 | 1008.9 |
| 20260509092034 | 3 | 0 | 0.0 | 0.0 | 0.00 | 0.03 | 0.00 | 95 | 1009.1 |
| 20260509091540 | 3 | 0 | 0.0 | 0.0 | 0.00 | 0.03 | 0.00 | 95 | 1009.0 |
| 20260509091035 | 3 | 0 | 0.0 | 0.0 | 0.00 | 0.03 | 0.00 | 95 | 1009.0 |
| 20260509090534 | 3 | 0 | 0.0 | 0.0 | 0.00 | 0.03 | 0.00 | 95 | 1009.1 |
| 20260509090100 | 2 | 0 | 0.0 | 0.0 | 0.00 | 0.03 | 0.00 | 95 | 1009.1 |
| 20260509085534 | 2 | 0 | 0.0 | 0.0 | 0.00 | 0.03 | 0.00 | 95 | 1009.1 |
| 20260509085034 | 2 | 0 | 0.0 | 0.0 | 0.00 | 0.03 | 0.00 | 95 | 1009.2 |
| 20260509084557 | 2 | 0 | 0.0 | 0.0 | 0.00 | 0.03 | 0.00 | 95 | 1009.2 |
| 20260509084035 | 3 | 0 | 0.0 | 0.0 | 0.00 | 0.03 | 0.00 | 94 | 1009.3 |
| 20260509083534 | 3 | 0 | 0.0 | 0.0 | 0.00 | 0.03 | 0.00 | 95 | 1009.4 |
| 20260509083049 | 3 | 0 | 0.0 | 0.0 | 0.00 | 0.03 | 0.00 | 95 | 1009.5 |
| 20260509082535 | 2 | 0 | 0.0 | 0.0 | 0.00 | 0.03 | 0.00 | 95 | 1009.5 |
| 20260509082034 | 2 | 0 | 0.0 | 0.0 | 0.00 | 0.03 | 0.00 | 95 | 1009.5 |
| 20260509081546 | 2 | 0 | 0.0 | 0.0 | 0.00 | 0.03 | 0.00 | 94 | 1009.6 |
| 20260509081035 | 2 | 0 | 0.0 | 0.0 | 0.00 | 0.03 | 0.00 | 94 | 1009.7 |
| 20260509080534 | 2 | 0 | 0.0 | 3.2 | 0.00 | 0.03 | 0.00 | 94 | 1009.7 |
| 20260509080043 | 2 | 0 | 0.0 | 3.2 | 0.00 | 0.03 | 0.00 | 94 | 1009.8 |
| 20260509075534 | 2 | 285 | 1.6 | 3.2 | 0.00 | 0.03 | 0.00 | 94 | 1009.8 |
| 20260509075034 | 2 | 0 | 0.0 | 1.6 | 0.00 | 0.03 | 0.00 | 94 | 1009.8 |
| 20260509074552 | 2 | 0 | 0.0 | 0.0 | 0.00 | 0.03 | 0.00 | 94 | 1009.9 |
| 20260509074033 | 2 | 0 | 0.0 | 0.0 | 0.00 | 0.03 | 0.00 | 94 | 1009.8 |
| 20260509073535 | 2 | 0 | 0.0 | 0.0 | 0.00 | 0.03 | 0.00 | 94 | 1009.9 |
| 20260509073047 | 2 | 0 | 0.0 | 0.0 | 0.00 | 0.03 | 0.00 | 94 | 1009.9 |
| 20260509072541 | 2 | 0 | 0.0 | 0.0 | 0.00 | 0.03 | 0.00 | 94 | 1010.0 |
| 20260509072034 | 2 | 0 | 0.0 | 0.0 | 0.00 | 0.03 | 0.00 | 94 | 1010.0 |
| 20260509071547 | 2 | 0 | 0.0 | 0.0 | 0.00 | 0.03 | 0.00 | 94 | 1010.0 |
| 20260509071035 | 2 | 0 | 0.0 | 0.0 | 0.00 | 0.03 | 0.00 | 94 | 1010.1 |
| 20260509070538 | 2 | 0 | 0.0 | 0.0 | 0.00 | 0.03 | 0.00 | 94 | 1010.1 |
| 20260509070049 | 2 | 0 | 0.0 | 0.0 | 0.00 | 0.03 | 0.00 | 94 | 1010.1 |
| 20260509065534 | 2 | 0 | 0.0 | 0.0 | 0.00 | 0.05 | 0.00 | 94 | 1010.2 |
| 20260509065034 | 2 | 0 | 0.0 | 0.0 | 0.00 | 0.05 | 0.00 | 94 | 1010.2 |
| 20260509064545 | 2 | 0 | 0.0 | 0.0 | 0.00 | 0.05 | 0.00 | 94 | 1010.2 |
| 20260509064035 | 2 | 0 | 0.0 | 0.0 | 0.00 | 0.05 | 0.00 | 94 | 1010.3 |
| 20260509063534 | 2 | 0 | 0.0 | 0.0 | 0.00 | 0.05 | 0.00 | 94 | 1010.3 |
| 20260509063043 | 2 | 0 | 0.0 | 0.0 | 0.00 | 0.05 | 0.00 | 93 | 1010.3 |
| 20260509062535 | 2 | 0 | 0.0 | 0.0 | 0.00 | 0.05 | 0.00 | 93 | 1010.5 |
| 20260509062035 | 2 | 0 | 0.0 | 0.0 | 0.00 | 0.05 | 0.00 | 93 | 1010.5 |
| 20260509061545 | 2 | 0 | 0.0 | 0.0 | 0.00 | 0.05 | 0.00 | 93 | 1010.6 |
| 20260509061034 | 3 | 0 | 0.0 | 0.0 | 0.00 | 0.05 | 0.00 | 93 | 1010.6 |
| 20260509060534 | 3 | 0 | 0.0 | 0.0 | 0.00 | 0.05 | 0.00 | 93 | 1010.7 |
| 20260509060048 | 3 | 0 | 0.0 | 0.0 | 0.00 | 0.05 | 0.00 | 93 | 1010.7 |
| 20260509055536 | 3 | 0 | 0.0 | 0.0 | 0.00 | 0.05 | 0.00 | 93 | 1010.8 |
| 20260509055035 | 3 | 0 | 0.0 | 0.0 | 0.00 | 0.05 | 0.00 | 94 | 1010.8 |
| 20260509054548 | 3 | 0 | 0.0 | 0.0 | 0.00 | 0.05 | 0.00 | 94 | 1010.8 |
| 20260509054034 | 3 | 0 | 0.0 | 0.0 | 0.00 | 0.05 | 0.00 | 93 | 1010.9 |
| 20260509053535 | 3 | 0 | 0.0 | 0.0 | 0.00 | 0.05 | 0.00 | 93 | 1010.9 |
| 20260509053138 | 3 | 0 | 0.0 | 0.0 | 0.00 | 0.05 | 0.00 | 93 | 1011.0 |
| 20260509052538 | 3 | 0 | 0.0 | 0.0 | 0.00 | 0.05 | 0.00 | 94 | 1011.1 |
| 20260509052034 | 3 | 0 | 0.0 | 0.0 | 0.00 | 0.05 | 0.00 | 93 | 1011.1 |
| 20260509051549 | 2 | 0 | 0.0 | 0.0 | 0.00 | 0.05 | 0.00 | 93 | 1011.2 |
| 20260509051034 | 2 | 0 | 0.0 | 0.0 | 0.00 | 0.05 | 0.00 | 93 | 1011.1 |
| 20260509050536 | 2 | 0 | 0.0 | 0.0 | 0.00 | 0.05 | 0.00 | 92 | 1011.2 |
| 20260509050048 | 2 | 0 | 0.0 | 0.0 | 0.00 | 0.05 | 0.00 | 92 | 1011.2 |
| 20260509045534 | 2 | 0 | 0.0 | 0.0 | 0.00 | 0.08 | 0.00 | 92 | 1011.1 |
| 20260509045034 | 2 | 0 | 0.0 | 0.0 | 0.00 | 0.08 | 0.00 | 92 | 1011.4 |
| 20260509044543 | 3 | 0 | 0.0 | 0.0 | 0.00 | 0.08 | 0.00 | 92 | 1011.4 |
| 20260509044034 | 3 | 0 | 0.0 | 0.0 | 0.00 | 0.08 | 0.00 | 92 | 1011.3 |
| 20260509043535 | 3 | 0 | 0.0 | 0.0 | 0.00 | 0.08 | 0.00 | 92 | 1011.4 |
| 20260509043039 | 3 | 0 | 0.0 | 0.0 | 0.00 | 0.08 | 0.00 | 92 | 1011.4 |
| 20260509042535 | 3 | 0 | 0.0 | 0.0 | 0.00 | 0.08 | 0.00 | 92 | 1011.4 |
| 20260509042036 | 3 | 0 | 0.0 | 0.0 | 0.00 | 0.08 | 0.00 | 91 | 1011.4 |
| 20260509041545 | 3 | 0 | 0.0 | 0.0 | 0.00 | 0.08 | 0.00 | 91 | 1011.5 |
| 20260509041035 | 3 | 0 | 0.0 | 0.0 | 0.00 | 0.08 | 0.00 | 91 | 1011.5 |
| 20260509040534 | 3 | 0 | 0.0 | 0.0 | 0.00 | 0.08 | 0.00 | 91 | 1011.5 |
| 20260509040107 | 3 | 0 | 0.0 | 0.0 | 0.00 | 0.08 | 0.00 | 91 | 1011.5 |
| 20260509035535 | 3 | 0 | 0.0 | 0.0 | 0.00 | 0.08 | 0.08 | 91 | 1011.5 |
| 20260509035035 | 3 | 0 | 0.0 | 0.0 | 0.00 | 0.08 | 0.08 | 91 | 1011.5 |
| 20260509034554 | 3 | 0 | 0.0 | 0.0 | 0.00 | 0.08 | 0.08 | 90 | 1011.5 |
| 20260509034034 | 3 | 0 | 0.0 | 0.0 | 0.00 | 0.08 | 0.08 | 90 | 1011.5 |
| 20260509033534 | 3 | 0 | 0.0 | 0.0 | 0.00 | 0.08 | 0.08 | 90 | 1011.5 |
| 20260509033044 | 3 | 0 | 0.0 | 0.0 | 0.00 | 0.08 | 0.08 | 90 | 1011.6 |
| 20260509032534 | 3 | 0 | 0.0 | 0.0 | 0.00 | 0.08 | 0.08 | 89 | 1011.5 |
| 20260509032034 | 3 | 0 | 0.0 | 0.0 | 0.00 | 0.08 | 0.08 | 89 | 1011.6 |
| 20260509031543 | 4 | 0 | 0.0 | 0.0 | 0.00 | 0.08 | 0.08 | 89 | 1011.6 |
| 20260509031035 | 4 | 0 | 0.0 | 0.0 | 0.00 | 0.08 | 0.08 | 89 | 1011.6 |
| 20260509030535 | 4 | 0 | 0.0 | 0.0 | 0.00 | 0.08 | 0.08 | 88 | 1011.6 |
| 20260509030040 | 4 | 0 | 0.0 | 0.0 | 0.00 | 0.08 | 0.08 | 88 | 1011.6 |
| 20260509025534 | 4 | 0 | 0.0 | 0.0 | 0.00 | 0.08 | 0.08 | 88 | 1011.7 |
| 20260509025035 | 4 | 0 | 0.0 | 0.0 | 0.00 | 0.08 | 0.08 | 87 | 1011.6 |
| 20260509024546 | 4 | 0 | 0.0 | 0.0 | 0.00 | 0.08 | 0.08 | 88 | 1011.7 |
| 20260509024035 | 4 | 0 | 0.0 | 0.0 | 0.00 | 0.08 | 0.08 | 87 | 1011.8 |
| 20260509023536 | 5 | 0 | 0.0 | 0.0 | 0.00 | 0.08 | 0.08 | 87 | 1011.7 |
| 20260509023049 | 5 | 0 | 0.0 | 0.0 | 0.00 | 0.08 | 0.08 | 87 | 1011.7 |
| 20260509022536 | 5 | 0 | 0.0 | 0.0 | 0.00 | 0.08 | 0.08 | 87 | 1011.8 |
| 20260509022037 | 5 | 0 | 0.0 | 0.0 | 0.00 | 0.08 | 0.08 | 86 | 1011.7 |
| 20260509021544 | 5 | 0 | 0.0 | 0.0 | 0.00 | 0.08 | 0.08 | 86 | 1011.7 |
| 20260509021034 | 5 | 0 | 0.0 | 0.0 | 0.00 | 0.08 | 0.08 | 86 | 1011.8 |
| 20260509020535 | 5 | 0 | 0.0 | 0.0 | 0.00 | 0.08 | 0.08 | 85 | 1011.8 |
| 20260509020047 | 5 | 0 | 0.0 | 0.0 | 0.00 | 0.08 | 0.08 | 85 | 1011.9 |
| 20260509015535 | 5 | 0 | 0.0 | 0.0 | 0.00 | 0.08 | 0.08 | 84 | 1011.9 |
| 20260509015034 | 5 | 0 | 0.0 | 0.0 | 0.00 | 0.08 | 0.08 | 84 | 1011.8 |
| 20260509014546 | 6 | 0 | 0.0 | 0.0 | 0.00 | 0.08 | 0.08 | 83 | 1011.8 |
| 20260509014036 | 6 | 0 | 0.0 | 0.0 | 0.00 | 0.08 | 0.08 | 83 | 1011.8 |
| 20260509013535 | 6 | 0 | 0.0 | 0.0 | 0.00 | 0.08 | 0.08 | 82 | 1011.7 |
| 20260509013102 | 6 | 0 | 0.0 | 0.0 | 0.00 | 0.08 | 0.08 | 82 | 1011.7 |
| 20260509012535 | 6 | 0 | 0.0 | 0.0 | 0.00 | 0.08 | 0.08 | 81 | 1011.6 |
| 20260509012038 | 6 | 0 | 0.0 | 0.0 | 0.00 | 0.08 | 0.08 | 81 | 1011.5 |
| 20260509011549 | 6 | 0 | 0.0 | 0.0 | 0.00 | 0.08 | 0.08 | 80 | 1011.5 |
| 20260509011034 | 7 | 0 | 0.0 | 0.0 | 0.00 | 0.08 | 0.08 | 79 | 1011.4 |
| 20260509010534 | 7 | 0 | 0.0 | 0.0 | 0.00 | 0.08 | 0.08 | 78 | 1011.3 |
| 20260509010046 | 7 | 0 | 0.0 | 0.0 | 0.00 | 0.08 | 0.08 | 77 | 1011.3 |
| 20260509005534 | 7 | 0 | 0.0 | 0.0 | 0.00 | 0.08 | 0.08 | 76 | 1011.2 |
| 20260509005036 | 7 | 0 | 0.0 | 0.0 | 0.00 | 0.08 | 0.08 | 75 | 1011.2 |
| 20260509004544 | 8 | 0 | 0.0 | 0.0 | 0.00 | 0.08 | 0.08 | 73 | 1011.1 |
| 20260509004034 | 8 | 0 | 0.0 | 0.0 | 0.00 | 0.08 | 0.08 | 73 | 1010.9 |
| 20260509003536 | 8 | 0 | 0.0 | 0.0 | 0.00 | 0.08 | 0.08 | 71 | 1010.9 |
| 20260509003108 | 8 | 0 | 0.0 | 0.0 | 0.00 | 0.08 | 0.08 | 70 | 1010.9 |
| 20260509002539 | 9 | 0 | 0.0 | 0.0 | 0.00 | 0.08 | 0.08 | 70 | 1010.9 |
| 20260509002035 | 9 | 0 | 0.0 | 0.0 | 0.00 | 0.08 | 0.08 | 70 | 1010.9 |
| 20260509001546 | 9 | 0 | 0.0 | 0.0 | 0.00 | 0.08 | 0.08 | 68 | 1010.8 |
| 20260509001034 | 10 | 0 | 0.0 | 0.0 | 0.00 | 0.08 | 0.08 | 69 | 1010.9 |
| 20260509000628 | 10 | 0 | 0.0 | 0.0 | 0.00 | 0.08 | 0.08 | 67 | 1010.8 |
| 20260509000103 | 10 | 0 | 0.0 | 0.0 | 0.00 | 0.08 | 0.08 | 67 | 1010.8 |
| 20260508235535 | 10 | 0 | 0.0 | 0.0 | 0.00 | 0.08 | 0.08 | 66 | 1010.8 |
| 20260508235035 | 10 | 0 | 0.0 | 0.0 | 0.00 | 0.08 | 0.08 | 64 | 1010.8 |
| 20260508234545 | 11 | 0 | 0.0 | 0.0 | 0.00 | 0.08 | 0.08 | 66 | 1010.7 |
| 20260508234035 | 11 | 0 | 0.0 | 1.6 | 0.00 | 0.08 | 0.08 | 64 | 1010.7 |
| 20260508233534 | 11 | 0 | 0.0 | 1.6 | 0.00 | 0.08 | 0.08 | 62 | 1010.6 |
| 20260508233050 | 11 | 0 | 0.0 | 1.6 | 0.00 | 0.08 | 0.08 | 60 | 1010.6 |
| 20260508232535 | 11 | 0 | 0.0 | 0.0 | 0.00 | 0.08 | 0.08 | 60 | 1010.7 |
| 20260508232035 | 11 | 0 | 0.0 | 4.8 | 0.00 | 0.08 | 0.08 | 59 | 1010.7 |
| 20260508231549 | 11 | 0 | 0.0 | 4.8 | 0.00 | 0.08 | 0.08 | 59 | 1010.7 |
| 20260508231035 | 11 | 286 | 0.0 | 4.8 | 0.00 | 0.08 | 0.08 | 57 | 1010.7 |
| 20260508230534 | 11 | 0 | 0.0 | 4.8 | 0.00 | 0.08 | 0.08 | 57 | 1010.7 |
| 20260508230046 | 12 | 0 | 0.0 | 4.8 | 0.00 | 0.08 | 0.08 | 56 | 1010.6 |
| 20260508225535 | 12 | 286 | 1.6 | 4.8 | 0.00 | 0.08 | 0.08 | 54 | 1010.7 |
| 20260508225035 | 12 | 216 | 0.0 | 4.8 | 0.00 | 0.08 | 0.08 | 55 | 1010.6 |
| 20260508224546 | 12 | 216 | 0.0 | 3.2 | 0.00 | 0.08 | 0.08 | 54 | 1010.7 |
| 20260508224034 | 12 | 107 | 0.0 | 3.2 | 0.00 | 0.08 | 0.08 | 56 | 1010.7 |
| 20260508223534 | 12 | 0 | 0.0 | 3.2 | 0.00 | 0.08 | 0.08 | 54 | 1010.6 |
| 20260508223045 | 12 | 109 | 0.0 | 3.2 | 0.00 | 0.08 | 0.08 | 54 | 1010.7 |
| 20260508222535 | 12 | 0 | 0.0 | 3.2 | 0.00 | 0.08 | 0.08 | 55 | 1010.7 |
| 20260508222035 | 12 | 0 | 0.0 | 4.8 | 0.00 | 0.08 | 0.08 | 55 | 1010.7 |
| 20260508221543 | 12 | 0 | 0.0 | 4.8 | 0.00 | 0.08 | 0.08 | 54 | 1010.7 |
| 20260508221034 | 12 | 0 | 0.0 | 4.8 | 0.00 | 0.08 | 0.08 | 51 | 1010.7 |
| 20260508220535 | 12 | 115 | 1.6 | 4.8 | 0.00 | 0.08 | 0.08 | 51 | 1010.7 |
| 20260508220049 | 12 | 132 | 0.0 | 3.2 | 0.00 | 0.08 | 0.08 | 51 | 1010.8 |
| 20260508215540 | 12 | 132 | 0.0 | 4.8 | 0.00 | 0.08 | 0.08 | 52 | 1010.8 |
| 20260508215038 | 12 | 291 | 0.0 | 8.0 | 0.00 | 0.08 | 0.08 | 53 | 1010.8 |
| 20260508214538 | 12 | 0 | 0.0 | 8.0 | 0.00 | 0.08 | 0.08 | 50 | 1010.8 |
| 20260508214034 | 12 | 302 | 1.6 | 6.4 | 0.00 | 0.08 | 0.08 | 51 | 1010.8 |
| 20260508213534 | 12 | 0 | 1.6 | 6.4 | 0.00 | 0.08 | 0.08 | 50 | 1010.9 |
| 20260508213048 | 12 | 281 | 1.6 | 11.3 | 0.00 | 0.08 | 0.08 | 51 | 1011.0 |
| 20260508212535 | 12 | 269 | 3.2 | 12.9 | 0.00 | 0.08 | 0.08 | 51 | 1011.0 |
| 20260508212033 | 12 | 290 | 3.2 | 12.9 | 0.00 | 0.08 | 0.08 | 51 | 1011.0 |
| 20260508211550 | 13 | 277 | 4.8 | 12.9 | 0.00 | 0.08 | 0.08 | 49 | 1011.0 |
| 20260508211038 | 13 | 161 | 1.6 | 6.4 | 0.00 | 0.08 | 0.08 | 53 | 1010.9 |
| 20260508210536 | 13 | 98 | 1.6 | 8.0 | 0.00 | 0.08 | 0.08 | 54 | 1011.0 |
| 20260508210050 | 13 | 108 | 1.6 | 8.0 | 0.00 | 0.08 | 0.08 | 52 | 1011.1 |
| 20260508205534 | 13 | 223 | 1.6 | 8.0 | 0.00 | 0.08 | 0.08 | 55 | 1011.0 |
| 20260508205034 | 13 | 0 | 1.6 | 6.4 | 0.00 | 0.08 | 0.08 | 54 | 1011.2 |
| 20260508204544 | 13 | 96 | 0.0 | 4.8 | 0.00 | 0.08 | 0.08 | 55 | 1011.1 |
| 20260508204034 | 13 | 120 | 0.0 | 4.8 | 0.00 | 0.08 | 0.08 | 57 | 1011.2 |
| 20260508203534 | 13 | 0 | 0.0 | 6.4 | 0.00 | 0.08 | 0.08 | 55 | 1011.3 |
| 20260508203050 | 12 | 296 | 1.6 | 11.3 | 0.00 | 0.08 | 0.08 | 57 | 1011.3 |
| 20260508202535 | 12 | 309 | 1.6 | 11.3 | 0.00 | 0.08 | 0.08 | 56 | 1011.3 |
| 20260508202035 | 12 | 263 | 3.2 | 11.3 | 0.00 | 0.08 | 0.08 | 53 | 1011.5 |
| 20260508201541 | 13 | 272 | 1.6 | 4.8 | 0.00 | 0.08 | 0.08 | 52 | 1011.5 |
| 20260508201035 | 12 | 148 | 0.0 | 9.7 | 0.00 | 0.08 | 0.08 | 56 | 1011.5 |
| 20260508200535 | 12 | 219 | 1.6 | 12.9 | 0.00 | 0.08 | 0.08 | 58 | 1011.4 |
| 20260508200041 | 12 | 288 | 1.6 | 12.9 | 0.00 | 0.08 | 0.08 | 61 | 1011.5 |
| 20260508195534 | 12 | 302 | 4.8 | 12.9 | 0.00 | 0.08 | 0.08 | 58 | 1011.7 |
| 20260508195034 | 12 | 5 | 1.6 | 9.7 | 0.00 | 0.08 | 0.08 | 64 | 1011.7 |
| 20260508194545 | 12 | 0 | 1.6 | 12.9 | 0.00 | 0.08 | 0.08 | 64 | 1011.6 |
| 20260508194034 | 12 | 119 | 3.2 | 12.9 | 0.00 | 0.08 | 0.08 | 63 | 1011.8 |
| 20260508193534 | 12 | 273 | 1.6 | 11.3 | 0.00 | 0.08 | 0.08 | 59 | 1011.7 |
| 20260508193055 | 12 | 290 | 3.2 | 11.3 | 0.00 | 0.08 | 0.08 | 56 | 1011.8 |
| 20260508192534 | 12 | 134 | 3.2 | 11.3 | 0.00 | 0.08 | 0.08 | 63 | 1011.8 |
| 20260508192035 | 12 | 99 | 3.2 | 12.9 | 0.00 | 0.08 | 0.08 | 65 | 1011.9 |
| 20260508191544 | 11 | 112 | 3.2 | 12.9 | 0.00 | 0.08 | 0.08 | 67 | 1011.9 |
| 20260508191035 | 11 | 348 | 1.6 | 8.0 | 0.00 | 0.08 | 0.08 | 66 | 1011.8 |
| 20260508190535 | 10 | 338 | 1.6 | 11.3 | 0.00 | 0.08 | 0.08 | 66 | 1011.8 |
| 20260508190046 | 10 | 283 | 1.6 | 11.3 | 0.00 | 0.08 | 0.08 | 67 | 1011.8 |
| 20260508185538 | 10 | 302 | 3.2 | 11.3 | 0.00 | 0.08 | 0.08 | 63 | 1011.8 |
| 20260508185034 | 10 | 290 | 1.6 | 12.9 | 0.00 | 0.08 | 0.08 | 62 | 1011.8 |
| 20260508184544 | 10 | 288 | 3.2 | 12.9 | 0.00 | 0.08 | 0.08 | 60 | 1011.7 |
| 20260508184034 | 11 | 298 | 1.6 | 8.0 | 0.00 | 0.08 | 0.08 | 60 | 1011.8 |
| 20260508183535 | 11 | 192 | 3.2 | 8.0 | 0.00 | 0.08 | 0.08 | 56 | 1011.7 |
| 20260508183059 | 11 | 274 | 4.8 | 8.0 | 0.00 | 0.08 | 0.08 | 62 | 1011.9 |
| 20260508182535 | 10 | 238 | 3.2 | 11.3 | 0.00 | 0.08 | 0.08 | 59 | 1011.9 |
| 20260508182034 | 10 | 214 | 3.2 | 12.9 | 0.00 | 0.08 | 0.08 | 64 | 1011.9 |
| 20260508181545 | 10 | 180 | 4.8 | 12.9 | 0.00 | 0.08 | 0.08 | 62 | 1012.0 |
| 20260508181034 | 10 | 190 | 6.4 | 12.9 | 0.00 | 0.08 | 0.08 | 62 | 1012.0 |
| 20260508180535 | 10 | 265 | 1.6 | 9.7 | 0.00 | 0.08 | 0.08 | 63 | 1012.1 |
| 20260508180046 | 10 | 210 | 1.6 | 8.0 | 0.00 | 0.08 | 0.08 | 62 | 1012.1 |
| 20260508175534 | 10 | 196 | 3.2 | 6.4 | 0.00 | 0.08 | 0.08 | 62 | 1012.1 |
| 20260508175037 | 10 | 298 | 3.2 | 6.4 | 0.00 | 0.08 | 0.08 | 61 | 1012.0 |
| 20260508174557 | 10 | 301 | 1.6 | 6.4 | 0.00 | 0.08 | 0.08 | 61 | 1012.2 |
| 20260508174035 | 10 | 258 | 0.0 | 6.4 | 0.00 | 0.08 | 0.08 | 63 | 1012.2 |
| 20260508173535 | 10 | 170 | 0.0 | 4.8 | 0.00 | 0.08 | 0.08 | 66 | 1012.2 |
| 20260508173047 | 10 | 62 | 0.0 | 4.8 | 0.00 | 0.08 | 0.08 | 71 | 1012.2 |
| 20260508172535 | 10 | 0 | 1.6 | 4.8 | 0.00 | 0.08 | 0.08 | 70 | 1012.3 |
| 20260508172035 | 10 | 64 | 1.6 | 4.8 | 0.00 | 0.08 | 0.08 | 73 | 1012.4 |
| 20260508171545 | 9 | 104 | 0.0 | 4.8 | 0.00 | 0.08 | 0.08 | 80 | 1012.4 |
| 20260508171038 | 8 | 0 | 0.0 | 4.8 | 0.00 | 0.08 | 0.08 | 76 | 1012.5 |
| 20260508170534 | 8 | 0 | 0.0 | 4.8 | 0.00 | 0.08 | 0.08 | 76 | 1012.5 |
| 20260508170055 | 8 | 99 | 3.2 | 6.4 | 0.00 | 0.08 | 0.08 | 76 | 1012.5 |
| 20260508165535 | 8 | 113 | 1.6 | 6.4 | 0.00 | 0.08 | 0.08 | 78 | 1012.7 |
| 20260508165035 | 8 | 0 | 0.0 | 4.8 | 0.00 | 0.08 | 0.08 | 78 | 1012.7 |
| 20260508164548 | 8 | 0 | 0.0 | 4.8 | 0.00 | 0.08 | 0.08 | 76 | 1012.8 |
| 20260508164034 | 8 | 328 | 0.0 | 6.4 | 0.00 | 0.08 | 0.08 | 76 | 1012.8 |
| 20260508163536 | 8 | 0 | 1.6 | 8.0 | 0.00 | 0.08 | 0.08 | 73 | 1012.9 |
| 20260508163108 | 8 | 340 | 0.0 | 9.7 | 0.00 | 0.08 | 0.08 | 68 | 1012.9 |
| 20260508162536 | 8 | 224 | 1.6 | 9.7 | 0.00 | 0.08 | 0.08 | 69 | 1012.8 |
| 20260508162034 | 8 | 0 | 0.0 | 4.8 | 0.00 | 0.08 | 0.08 | 69 | 1012.8 |
| 20260508161550 | 8 | 0 | 1.6 | 8.0 | 0.00 | 0.08 | 0.08 | 68 | 1012.8 |
| 20260508161037 | 8 | 247 | 3.2 | 8.0 | 0.00 | 0.08 | 0.08 | 69 | 1012.8 |
| 20260508160535 | 8 | 120 | 1.6 | 6.4 | 0.00 | 0.08 | 0.08 | 71 | 1012.8 |
| 20260508160047 | 8 | 0 | 3.2 | 6.4 | 0.00 | 0.08 | 0.08 | 73 | 1012.7 |
| 20260508155537 | 8 | 0 | 1.6 | 8.0 | 0.00 | 0.08 | 0.08 | 73 | 1012.7 |
| 20260508155037 | 8 | 204 | 3.2 | 9.7 | 0.00 | 0.08 | 0.08 | 69 | 1012.8 |
| 20260508154551 | 8 | 0 | 1.6 | 9.7 | 0.00 | 0.08 | 0.08 | 71 | 1012.8 |
| 20260508154034 | 8 | 219 | 1.6 | 11.3 | 0.00 | 0.08 | 0.08 | 72 | 1012.8 |
| 20260508153535 | 8 | 0 | 0.0 | 11.3 | 0.00 | 0.08 | 0.08 | 71 | 1012.8 |
| 20260508153047 | 8 | 257 | 3.2 | 6.4 | 0.00 | 0.08 | 0.08 | 76 | 1012.8 |
| 20260508152535 | 8 | 0 | 1.6 | 8.0 | 0.00 | 0.08 | 0.08 | 77 | 1012.6 |
| 20260508152041 | 8 | 174 | 3.2 | 8.0 | 0.00 | 0.08 | 0.08 | 76 | 1012.6 |
| 20260508151545 | 7 | 308 | 3.2 | 8.0 | 0.00 | 0.08 | 0.08 | 75 | 1012.7 |
| 20260508151034 | 7 | 0 | 3.2 | 8.0 | 0.00 | 0.08 | 0.08 | 77 | 1012.7 |
| 20260508150535 | 7 | 229 | 1.6 | 8.0 | 0.00 | 0.08 | 0.08 | 83 | 1012.6 |
| 20260508150044 | 7 | 251 | 3.2 | 8.0 | 0.03 | 0.08 | 0.08 | 80 | 1012.6 |
| 20260508145535 | 7 | 237 | 1.6 | 8.0 | 0.03 | 0.08 | 0.08 | 83 | 1012.5 |
| 20260508145036 | 7 | 217 | 3.2 | 11.3 | 0.03 | 0.08 | 0.08 | 83 | 1012.7 |
| 20260508144543 | 6 | 0 | 3.2 | 11.3 | 0.03 | 0.08 | 0.08 | 86 | 1012.9 |
| 20260508144048 | 6 | 200 | 3.2 | 9.7 | 0.03 | 0.08 | 0.08 | 87 | 1012.8 |
| 20260508143535 | 6 | 0 | 1.6 | 8.0 | 0.03 | 0.08 | 0.08 | 89 | 1012.9 |
| 20260508143039 | 6 | 211 | 1.6 | 8.0 | 0.03 | 0.08 | 0.08 | 91 | 1013.0 |
| 20260508142535 | 6 | 211 | 0.0 | 4.8 | 0.03 | 0.08 | 0.08 | 90 | 1013.0 |
| 20260508142035 | 5 | 223 | 1.6 | 4.8 | 0.03 | 0.08 | 0.08 | 89 | 1013.1 |
| 20260508141552 | 5 | 0 | 1.6 | 4.8 | 0.03 | 0.08 | 0.08 | 88 | 1012.9 |
| 20260508141035 | 5 | 0 | 0.0 | 3.2 | 0.03 | 0.08 | 0.08 | 89 | 1013.0 |
| 20260508140534 | 5 | 300 | 0.0 | 3.2 | 0.03 | 0.08 | 0.08 | 87 | 1013.0 |
| 20260508140049 | 5 | 300 | 0.0 | 3.2 | 0.00 | 0.05 | 0.05 | 86 | 1013.2 |
| 20260508135535 | 5 | 0 | 0.0 | 3.2 | 0.00 | 0.05 | 0.05 | 87 | 1013.3 |
| 20260508135037 | 5 | 0 | 0.0 | 6.4 | 0.00 | 0.05 | 0.05 | 87 | 1013.3 |
| 20260508134546 | 5 | 0 | 0.0 | 9.7 | 0.00 | 0.05 | 0.05 | 88 | 1013.2 |
| 20260508134034 | 5 | 212 | 1.6 | 9.7 | 0.00 | 0.05 | 0.05 | 89 | 1013.1 |
| 20260508133536 | 5 | 267 | 1.6 | 9.7 | 0.00 | 0.05 | 0.05 | 91 | 1013.0 |
| 20260508133049 | 5 | 202 | 3.2 | 8.0 | 0.00 | 0.05 | 0.05 | 92 | 1012.9 |
| 20260508132534 | 5 | 303 | 1.6 | 6.4 | 0.00 | 0.05 | 0.05 | 94 | 1012.8 |